Year,Month,Day,Hour,Minute,Value (Times are PST for temperature in C)
2010,07,29,00,00,14.70
2010,07,29,00,01,14.70
2010,07,29,00,02,14.70
2010,07,29,00,03,14.70
2010,07,29,00,04,14.60
2010,07,29,00,05,14.60
2010,07,29,00,06,14.60
2010,07,29,00,07,14.60
2010,07,29,00,08,14.60
2010,07,29,00,09,14.50
2010,07,29,00,10,14.50
2010,07,29,00,11,14.40
2010,07,29,00,12,14.40
2010,07,29,00,13,14.40
2010,07,29,00,14,14.30
2010,07,29,00,15,14.30
2010,07,29,00,16,14.30
2010,07,29,00,17,14.20
2010,07,29,00,18,14.20
2010,07,29,00,19,14.10
2010,07,29,00,20,14.10
2010,07,29,00,21,14.00
2010,07,29,00,22,14.00
2010,07,29,00,23,13.90
2010,07,29,00,24,13.90
2010,07,29,00,25,13.90
2010,07,29,00,26,13.80
2010,07,29,00,27,13.80
2010,07,29,00,28,13.80
2010,07,29,00,29,13.80
2010,07,29,00,30,13.80
2010,07,29,00,31,13.80
2010,07,29,00,32,13.80
2010,07,29,00,33,13.80
2010,07,29,00,34,13.80
2010,07,29,00,35,13.80
2010,07,29,00,36,13.80
2010,07,29,00,37,13.80
2010,07,29,00,38,13.90
2010,07,29,00,39,13.90
2010,07,29,00,40,13.90
2010,07,29,00,41,13.90
2010,07,29,00,42,13.90
2010,07,29,00,43,13.90
2010,07,29,00,44,13.90
2010,07,29,00,45,13.90
2010,07,29,00,46,13.90
2010,07,29,00,47,13.90
2010,07,29,00,48,13.90
2010,07,29,00,49,13.80
2010,07,29,00,50,13.80
2010,07,29,00,51,13.80
2010,07,29,00,52,13.80
2010,07,29,00,53,13.70
2010,07,29,00,54,13.70
2010,07,29,00,55,13.70
2010,07,29,00,56,13.60
2010,07,29,00,57,13.60
2010,07,29,00,58,13.60
2010,07,29,00,59,13.50
2010,07,29,01,00,13.50
2010,07,29,01,01,13.50
2010,07,29,01,02,13.40
2010,07,29,01,03,13.40
2010,07,29,01,04,13.40
2010,07,29,01,05,13.40
2010,07,29,01,06,13.40
2010,07,29,01,07,13.40
2010,07,29,01,08,13.30
2010,07,29,01,09,13.30
2010,07,29,01,10,13.30
2010,07,29,01,11,13.30
2010,07,29,01,12,13.30
2010,07,29,01,13,13.30
2010,07,29,01,14,13.30
2010,07,29,01,15,13.40
2010,07,29,01,16,13.40
2010,07,29,01,17,13.40
2010,07,29,01,18,13.40
2010,07,29,01,19,13.40
2010,07,29,01,20,13.40
2010,07,29,01,21,13.40
2010,07,29,01,22,13.40
2010,07,29,01,23,13.40
2010,07,29,01,24,13.30
2010,07,29,01,25,13.30
2010,07,29,01,26,13.30
2010,07,29,01,27,13.30
2010,07,29,01,28,13.30
2010,07,29,01,29,13.30
2010,07,29,01,30,13.20
2010,07,29,01,31,13.20
2010,07,29,01,32,13.20
2010,07,29,01,33,13.20
2010,07,29,01,34,13.20
2010,07,29,01,35,13.20
2010,07,29,01,36,13.20
2010,07,29,01,37,13.20
2010,07,29,01,38,13.20
2010,07,29,01,39,13.20
2010,07,29,01,40,13.20
2010,07,29,01,41,13.20
2010,07,29,01,42,13.20
2010,07,29,01,43,13.20
2010,07,29,01,44,13.20
2010,07,29,01,45,13.20
2010,07,29,01,46,13.20
2010,07,29,01,47,13.20
2010,07,29,01,48,13.20
2010,07,29,01,49,13.20
2010,07,29,01,50,13.20
2010,07,29,01,51,13.20
2010,07,29,01,52,13.20
2010,07,29,01,53,13.20
2010,07,29,01,54,13.20
2010,07,29,01,55,13.20
2010,07,29,01,56,13.20
2010,07,29,01,57,13.20
2010,07,29,01,58,13.20
2010,07,29,01,59,13.20
2010,07,29,02,00,13.20
2010,07,29,02,01,13.20
2010,07,29,02,02,13.20
2010,07,29,02,03,13.20
2010,07,29,02,04,13.20
2010,07,29,02,05,13.20
2010,07,29,02,06,13.20
2010,07,29,02,07,13.20
2010,07,29,02,08,13.20
2010,07,29,02,09,13.20
2010,07,29,02,10,13.20
2010,07,29,02,11,13.20
2010,07,29,02,12,13.20
2010,07,29,02,13,13.20
2010,07,29,02,14,13.20
2010,07,29,02,15,13.20
2010,07,29,02,16,13.20
2010,07,29,02,17,13.10
2010,07,29,02,18,13.10
2010,07,29,02,19,13.10
2010,07,29,02,20,13.10
2010,07,29,02,21,13.10
2010,07,29,02,22,13.10
2010,07,29,02,23,13.10
2010,07,29,02,24,13.10
2010,07,29,02,25,13.10
2010,07,29,02,26,13.10
2010,07,29,02,27,13.10
2010,07,29,02,28,13.10
2010,07,29,02,29,13.10
2010,07,29,02,30,13.00
2010,07,29,02,31,13.00
2010,07,29,02,32,13.00
2010,07,29,02,33,13.00
2010,07,29,02,34,13.00
2010,07,29,02,35,13.00
2010,07,29,02,36,13.00
2010,07,29,02,37,13.00
2010,07,29,02,38,13.00
2010,07,29,02,39,12.90
2010,07,29,02,40,12.90
2010,07,29,02,41,12.90
2010,07,29,02,42,12.90
2010,07,29,02,43,12.90
2010,07,29,02,44,12.90
2010,07,29,02,45,12.90
2010,07,29,02,46,12.90
2010,07,29,02,47,12.90
2010,07,29,02,48,12.90
2010,07,29,02,49,12.90
2010,07,29,02,50,12.90
2010,07,29,02,51,12.90
2010,07,29,02,52,12.90
2010,07,29,02,53,12.90
2010,07,29,02,54,12.90
2010,07,29,02,55,12.90
2010,07,29,02,56,12.90
2010,07,29,02,57,12.90
2010,07,29,02,58,12.90
2010,07,29,02,59,12.80
2010,07,29,03,00,12.80
2010,07,29,03,01,12.80
2010,07,29,03,02,12.80
2010,07,29,03,03,12.80
2010,07,29,03,04,12.80
2010,07,29,03,05,12.70
2010,07,29,03,06,12.70
2010,07,29,03,07,12.70
2010,07,29,03,08,12.70
2010,07,29,03,09,12.70
2010,07,29,03,10,12.70
2010,07,29,03,11,12.60
2010,07,29,03,12,12.60
2010,07,29,03,13,12.60
2010,07,29,03,14,12.60
2010,07,29,03,15,12.60
2010,07,29,03,16,12.50
2010,07,29,03,17,12.50
2010,07,29,03,18,12.40
2010,07,29,03,19,12.40
2010,07,29,03,20,12.40
2010,07,29,03,21,12.40
2010,07,29,03,22,12.40
2010,07,29,03,23,12.40
2010,07,29,03,24,12.30
2010,07,29,03,25,12.30
2010,07,29,03,26,12.30
2010,07,29,03,27,12.30
2010,07,29,03,28,12.30
2010,07,29,03,29,12.30
2010,07,29,03,30,12.30
2010,07,29,03,31,12.30
2010,07,29,03,32,12.30
2010,07,29,03,33,12.20
2010,07,29,03,34,12.20
2010,07,29,03,35,12.20
2010,07,29,03,36,12.20
2010,07,29,03,37,12.10
2010,07,29,03,38,12.10
2010,07,29,03,39,12.10
2010,07,29,03,40,12.00
2010,07,29,03,41,12.00
2010,07,29,03,42,11.90
2010,07,29,03,43,11.90
2010,07,29,03,44,11.90
2010,07,29,03,45,11.90
2010,07,29,03,46,11.80
2010,07,29,03,47,11.80
2010,07,29,03,48,11.80
2010,07,29,03,49,11.80
2010,07,29,03,50,11.80
2010,07,29,03,51,11.80
2010,07,29,03,52,11.80
2010,07,29,03,53,11.70
2010,07,29,03,54,11.70
2010,07,29,03,55,11.70
2010,07,29,03,56,11.70
2010,07,29,03,57,11.70
2010,07,29,03,58,11.70
2010,07,29,03,59,11.70
2010,07,29,04,00,11.70
2010,07,29,04,01,11.70
2010,07,29,04,02,11.70
2010,07,29,04,03,11.70
2010,07,29,04,04,11.70
2010,07,29,04,05,11.70
2010,07,29,04,06,11.70
2010,07,29,04,07,11.70
2010,07,29,04,08,11.70
2010,07,29,04,09,11.70
2010,07,29,04,10,11.70
2010,07,29,04,11,11.70
2010,07,29,04,12,11.70
2010,07,29,04,13,11.70
2010,07,29,04,14,11.70
2010,07,29,04,15,11.70
2010,07,29,04,16,11.70
2010,07,29,04,17,11.70
2010,07,29,04,18,11.70
2010,07,29,04,19,11.70
2010,07,29,04,20,11.70
2010,07,29,04,21,11.70
2010,07,29,04,22,11.70
2010,07,29,04,23,11.70
2010,07,29,04,24,11.70
2010,07,29,04,25,11.70
2010,07,29,04,26,11.70
2010,07,29,04,27,11.70
2010,07,29,04,28,11.70
2010,07,29,04,29,11.70
2010,07,29,04,30,11.70
2010,07,29,04,31,11.70
2010,07,29,04,32,11.70
2010,07,29,04,33,11.70
2010,07,29,04,34,11.70
2010,07,29,04,35,11.70
2010,07,29,04,36,11.70
2010,07,29,04,37,11.70
2010,07,29,04,38,11.70
2010,07,29,04,39,11.70
2010,07,29,04,40,11.70
2010,07,29,04,41,11.70
2010,07,29,04,42,11.60
2010,07,29,04,43,11.60
2010,07,29,04,44,11.60
2010,07,29,04,45,11.60
2010,07,29,04,46,11.60
2010,07,29,04,47,11.60
2010,07,29,04,48,11.60
2010,07,29,04,49,11.60
2010,07,29,04,50,11.60
2010,07,29,04,51,11.50
2010,07,29,04,52,11.50
2010,07,29,04,53,11.50
2010,07,29,04,54,11.50
2010,07,29,04,55,11.50
2010,07,29,04,56,11.50
2010,07,29,04,57,11.40
2010,07,29,04,58,11.40
2010,07,29,04,59,11.40
2010,07,29,05,00,11.40
2010,07,29,05,01,11.40
2010,07,29,05,02,11.40
2010,07,29,05,03,11.40
2010,07,29,05,04,11.40
2010,07,29,05,05,11.40
2010,07,29,05,06,11.30
2010,07,29,05,07,11.30
2010,07,29,05,08,11.30
2010,07,29,05,09,11.30
2010,07,29,05,10,11.30
2010,07,29,05,11,11.30
2010,07,29,05,12,11.30
2010,07,29,05,13,11.30
2010,07,29,05,14,11.30
2010,07,29,05,15,11.30
2010,07,29,05,16,11.30
2010,07,29,05,17,11.30
2010,07,29,05,18,11.30
2010,07,29,05,19,11.30
2010,07,29,05,20,11.30
2010,07,29,05,21,11.20
2010,07,29,05,22,11.20
2010,07,29,05,23,11.20
2010,07,29,05,24,11.20
2010,07,29,05,25,11.20
2010,07,29,05,26,11.20
2010,07,29,05,27,11.20
2010,07,29,05,28,11.20
2010,07,29,05,29,11.20
2010,07,29,05,30,11.20
2010,07,29,05,31,11.20
2010,07,29,05,32,11.20
2010,07,29,05,33,11.20
2010,07,29,05,34,11.20
2010,07,29,05,35,11.20
2010,07,29,05,36,11.20
2010,07,29,05,37,11.20
2010,07,29,05,38,11.20
2010,07,29,05,39,11.10
2010,07,29,05,40,11.10
2010,07,29,05,41,11.10
2010,07,29,05,42,11.10
2010,07,29,05,43,11.10
2010,07,29,05,44,11.10
2010,07,29,05,45,11.10
2010,07,29,05,46,11.10
2010,07,29,05,47,11.10
2010,07,29,05,48,11.10
2010,07,29,05,49,11.10
2010,07,29,05,50,11.00
2010,07,29,05,51,11.00
2010,07,29,05,52,11.00
2010,07,29,05,53,11.00
2010,07,29,05,54,11.00
2010,07,29,05,55,11.00
2010,07,29,05,56,11.00
2010,07,29,05,57,11.00
2010,07,29,05,58,11.00
2010,07,29,05,59,11.00
2010,07,29,06,00,11.00
2010,07,29,06,01,11.00
2010,07,29,06,02,11.00
2010,07,29,06,03,11.00
2010,07,29,06,04,11.00
2010,07,29,06,05,11.00
2010,07,29,06,06,11.00
2010,07,29,06,07,10.90
2010,07,29,06,08,11.00
2010,07,29,06,09,10.90
2010,07,29,06,10,10.90
2010,07,29,06,11,10.90
2010,07,29,06,12,10.90
2010,07,29,06,13,10.90
2010,07,29,06,14,10.90
2010,07,29,06,15,10.90
2010,07,29,06,16,10.90
2010,07,29,06,17,10.90
2010,07,29,06,18,10.90
2010,07,29,06,19,10.90
2010,07,29,06,20,10.90
2010,07,29,06,21,10.90
2010,07,29,06,22,10.90
2010,07,29,06,23,10.90
2010,07,29,06,24,11.00
2010,07,29,06,25,11.00
2010,07,29,06,26,11.00
2010,07,29,06,27,11.00
2010,07,29,06,28,11.00
2010,07,29,06,29,11.00
2010,07,29,06,30,11.00
2010,07,29,06,31,11.00
2010,07,29,06,32,11.00
2010,07,29,06,33,11.00
2010,07,29,06,34,11.00
2010,07,29,06,35,11.00
2010,07,29,06,36,11.00
2010,07,29,06,37,11.10
2010,07,29,06,38,11.10
2010,07,29,06,39,11.10
2010,07,29,06,40,11.10
2010,07,29,06,41,11.10
2010,07,29,06,42,11.20
2010,07,29,06,43,11.20
2010,07,29,06,44,11.20
2010,07,29,06,45,11.20
2010,07,29,06,46,11.20
2010,07,29,06,47,11.30
2010,07,29,06,48,11.30
2010,07,29,06,49,11.30
2010,07,29,06,50,11.30
2010,07,29,06,51,11.30
2010,07,29,06,52,11.40
2010,07,29,06,53,11.40
2010,07,29,06,54,11.40
2010,07,29,06,55,11.40
2010,07,29,06,56,11.40
2010,07,29,06,57,11.50
2010,07,29,06,58,11.50
2010,07,29,06,59,11.50
2010,07,29,07,00,11.50
2010,07,29,07,01,11.60
2010,07,29,07,02,11.60
2010,07,29,07,03,11.60
2010,07,29,07,04,11.60
2010,07,29,07,05,11.60
2010,07,29,07,06,11.60
2010,07,29,07,07,11.60
2010,07,29,07,08,11.70
2010,07,29,07,09,11.70
2010,07,29,07,10,11.70
2010,07,29,07,11,11.70
2010,07,29,07,12,11.70
2010,07,29,07,13,11.70
2010,07,29,07,14,11.80
2010,07,29,07,15,11.80
2010,07,29,07,16,11.80
2010,07,29,07,17,11.80
2010,07,29,07,18,11.80
2010,07,29,07,19,11.80
2010,07,29,07,20,11.90
2010,07,29,07,21,11.90
2010,07,29,07,22,11.90
2010,07,29,07,23,11.90
2010,07,29,07,24,11.90
2010,07,29,07,25,12.00
2010,07,29,07,26,12.00
2010,07,29,07,27,12.00
2010,07,29,07,28,12.00
2010,07,29,07,29,12.00
2010,07,29,07,30,12.10
2010,07,29,07,31,12.10
2010,07,29,07,32,12.10
2010,07,29,07,33,12.10
2010,07,29,07,34,12.10
2010,07,29,07,35,12.20
2010,07,29,07,36,12.20
2010,07,29,07,37,12.20
2010,07,29,07,38,12.20
2010,07,29,07,39,12.30
2010,07,29,07,40,12.30
2010,07,29,07,41,12.30
2010,07,29,07,42,12.40
2010,07,29,07,43,12.40
2010,07,29,07,44,12.40
2010,07,29,07,45,12.40
2010,07,29,07,46,12.40
2010,07,29,07,47,12.50
2010,07,29,07,48,12.50
2010,07,29,07,49,12.50
2010,07,29,07,50,12.60
2010,07,29,07,51,12.60
2010,07,29,07,52,12.60
2010,07,29,07,53,12.60
2010,07,29,07,54,12.60
2010,07,29,07,55,12.60
2010,07,29,07,56,12.60
2010,07,29,07,57,12.70
2010,07,29,07,58,12.70
2010,07,29,07,59,12.70
2010,07,29,08,00,12.70
2010,07,29,08,01,12.70
2010,07,29,08,02,12.80
2010,07,29,08,03,12.80
2010,07,29,08,04,12.80
2010,07,29,08,05,12.80
2010,07,29,08,06,12.90
2010,07,29,08,07,12.90
2010,07,29,08,08,12.90
2010,07,29,08,09,12.90
2010,07,29,08,10,12.90
2010,07,29,08,11,13.00
2010,07,29,08,12,13.00
2010,07,29,08,13,13.10
2010,07,29,08,14,13.10
2010,07,29,08,15,13.20
2010,07,29,08,16,13.20
2010,07,29,08,17,13.20
2010,07,29,08,18,13.30
2010,07,29,08,19,13.30
2010,07,29,08,20,13.40
2010,07,29,08,21,13.40
2010,07,29,08,22,13.40
2010,07,29,08,23,13.50
2010,07,29,08,24,13.50
2010,07,29,08,25,13.50
2010,07,29,08,26,13.60
2010,07,29,08,27,13.60
2010,07,29,08,28,13.60
2010,07,29,08,29,13.70
2010,07,29,08,30,13.70
2010,07,29,08,31,13.70
2010,07,29,08,32,13.80
2010,07,29,08,33,13.80
2010,07,29,08,34,13.80
2010,07,29,08,35,13.80
2010,07,29,08,36,13.90
2010,07,29,08,37,13.90
2010,07,29,08,38,13.90
2010,07,29,08,39,13.90
2010,07,29,08,40,13.90
2010,07,29,08,41,14.00
2010,07,29,08,42,14.00
2010,07,29,08,43,14.00
2010,07,29,08,44,14.10
2010,07,29,08,45,14.10
2010,07,29,08,46,14.20
2010,07,29,08,47,14.20
2010,07,29,08,48,14.20
2010,07,29,08,49,14.30
2010,07,29,08,50,14.30
2010,07,29,08,51,14.30
2010,07,29,08,52,14.40
2010,07,29,08,53,14.40
2010,07,29,08,54,14.40
2010,07,29,08,55,14.40
2010,07,29,08,56,14.50
2010,07,29,08,57,14.50
2010,07,29,08,58,14.50
2010,07,29,08,59,14.50
2010,07,29,09,00,14.60
2010,07,29,09,01,14.60
2010,07,29,09,02,14.60
2010,07,29,09,03,14.60
2010,07,29,09,04,14.60
2010,07,29,09,05,14.60
2010,07,29,09,06,14.60
2010,07,29,09,07,14.60
2010,07,29,09,08,14.70
2010,07,29,09,09,14.70
2010,07,29,09,10,14.80
2010,07,29,09,11,14.80
2010,07,29,09,12,14.90
2010,07,29,09,13,15.00
2010,07,29,09,14,15.00
2010,07,29,09,15,15.10
2010,07,29,09,16,15.20
2010,07,29,09,17,15.30
2010,07,29,09,18,15.40
2010,07,29,09,19,15.50
2010,07,29,09,20,15.50
2010,07,29,09,21,15.60
2010,07,29,09,22,15.70
2010,07,29,09,23,15.70
2010,07,29,09,24,15.80
2010,07,29,09,25,15.80
2010,07,29,09,26,15.80
2010,07,29,09,27,15.80
2010,07,29,09,28,15.80
2010,07,29,09,29,15.90
2010,07,29,09,30,15.90
2010,07,29,09,31,15.90
2010,07,29,09,32,15.90
2010,07,29,09,33,16.00
2010,07,29,09,34,16.00
2010,07,29,09,35,16.10
2010,07,29,09,36,16.10
2010,07,29,09,37,16.10
2010,07,29,09,38,16.20
2010,07,29,09,39,16.20
2010,07,29,09,40,16.30
2010,07,29,09,41,16.30
2010,07,29,09,42,16.30
2010,07,29,09,43,16.30
2010,07,29,09,44,16.30
2010,07,29,09,45,16.20
2010,07,29,09,46,16.20
2010,07,29,09,47,16.20
2010,07,29,09,48,16.20
2010,07,29,09,49,16.20
2010,07,29,09,50,16.20
2010,07,29,09,51,16.20
2010,07,29,09,52,16.30
2010,07,29,09,53,16.30
2010,07,29,09,54,16.30
2010,07,29,09,55,16.20
2010,07,29,09,56,16.20
2010,07,29,09,57,16.20
2010,07,29,09,58,16.10
2010,07,29,09,59,16.10
2010,07,29,10,00,16.10
2010,07,29,10,01,16.00
2010,07,29,10,02,16.00
2010,07,29,10,03,15.90
2010,07,29,10,04,15.90
2010,07,29,10,05,15.80
2010,07,29,10,06,15.80
2010,07,29,10,07,15.80
2010,07,29,10,08,15.80
2010,07,29,10,09,15.80
2010,07,29,10,10,15.80
2010,07,29,10,11,15.80
2010,07,29,10,12,15.70
2010,07,29,10,13,15.70
2010,07,29,10,14,15.70
2010,07,29,10,15,15.70
2010,07,29,10,16,15.70
2010,07,29,10,17,15.80
2010,07,29,10,18,15.80
2010,07,29,10,19,15.80
2010,07,29,10,20,15.70
2010,07,29,10,21,15.70
2010,07,29,10,22,15.70
2010,07,29,10,23,15.70
2010,07,29,10,24,15.70
2010,07,29,10,25,15.70
2010,07,29,10,26,15.70
2010,07,29,10,27,15.70
2010,07,29,10,28,15.70
2010,07,29,10,29,15.70
2010,07,29,10,30,15.70
2010,07,29,10,31,15.70
2010,07,29,10,32,15.70
2010,07,29,10,33,15.70
2010,07,29,10,34,15.70
2010,07,29,10,35,15.70
2010,07,29,10,36,15.70
2010,07,29,10,37,15.60
2010,07,29,10,38,15.60
2010,07,29,10,39,15.50
2010,07,29,10,40,15.40
2010,07,29,10,41,15.40
2010,07,29,10,42,15.40
2010,07,29,10,43,15.30
2010,07,29,10,44,15.30
2010,07,29,10,45,15.20
2010,07,29,10,46,15.20
2010,07,29,10,47,15.10
2010,07,29,10,48,15.10
2010,07,29,10,49,15.00
2010,07,29,10,50,15.00
2010,07,29,10,51,14.90
2010,07,29,10,52,14.80
2010,07,29,10,53,14.80
2010,07,29,10,54,14.70
2010,07,29,10,55,14.70
2010,07,29,10,56,14.60
2010,07,29,10,57,14.60
2010,07,29,10,58,14.60
2010,07,29,10,59,14.50
2010,07,29,11,00,14.40
2010,07,29,11,01,14.40
2010,07,29,11,02,14.30
2010,07,29,11,03,14.30
2010,07,29,11,04,14.30
2010,07,29,11,05,14.30
2010,07,29,11,06,14.20
2010,07,29,11,07,14.20
2010,07,29,11,08,14.20
2010,07,29,11,09,14.20
2010,07,29,11,10,14.10
2010,07,29,11,11,14.10
2010,07,29,11,12,14.00
2010,07,29,11,13,14.00
2010,07,29,11,14,13.90
2010,07,29,11,15,13.90
2010,07,29,11,16,13.80
2010,07,29,11,17,13.80
2010,07,29,11,18,13.80
2010,07,29,11,19,13.80
2010,07,29,11,20,13.80
2010,07,29,11,21,13.80
2010,07,29,11,22,13.80
2010,07,29,11,23,13.80
2010,07,29,11,24,13.80
2010,07,29,11,25,13.80
2010,07,29,11,26,13.80
2010,07,29,11,27,13.80
2010,07,29,11,28,13.80
2010,07,29,11,29,13.80
2010,07,29,11,30,13.70
2010,07,29,11,31,13.60
2010,07,29,11,32,13.60
2010,07,29,11,33,13.60
2010,07,29,11,34,13.50
2010,07,29,11,35,13.50
2010,07,29,11,36,13.50
2010,07,29,11,37,13.50
2010,07,29,11,38,13.40
2010,07,29,11,39,13.30
2010,07,29,11,40,13.30
2010,07,29,11,41,13.30
2010,07,29,11,42,13.30
2010,07,29,11,43,13.30
2010,07,29,11,44,13.30
2010,07,29,11,45,13.30
2010,07,29,11,46,13.30
2010,07,29,11,47,13.40
2010,07,29,11,48,13.40
2010,07,29,11,49,13.40
2010,07,29,11,50,13.40
2010,07,29,11,51,13.40
2010,07,29,11,52,13.50
2010,07,29,11,53,13.50
2010,07,29,11,54,13.50
2010,07,29,11,55,13.50
2010,07,29,11,56,13.50
2010,07,29,11,57,13.60
2010,07,29,11,58,13.60
2010,07,29,11,59,13.60
2010,07,29,12,00,13.70
2010,07,29,12,01,13.70
2010,07,29,12,02,13.70
2010,07,29,12,03,13.70
2010,07,29,12,04,13.70
2010,07,29,12,05,13.70
2010,07,29,12,06,13.70
2010,07,29,12,07,13.70
2010,07,29,12,08,13.70
2010,07,29,12,09,13.80
2010,07,29,12,10,13.80
2010,07,29,12,11,13.80
2010,07,29,12,12,13.80
2010,07,29,12,13,13.80
2010,07,29,12,14,13.80
2010,07,29,12,15,13.80
2010,07,29,12,16,13.90
2010,07,29,12,17,13.90
2010,07,29,12,18,13.90
2010,07,29,12,19,13.90
2010,07,29,12,20,14.00
2010,07,29,12,21,14.10
2010,07,29,12,22,14.20
2010,07,29,12,23,14.20
2010,07,29,12,24,14.30
2010,07,29,12,25,14.30
2010,07,29,12,26,14.30
2010,07,29,12,27,14.40
2010,07,29,12,28,14.40
2010,07,29,12,29,14.40
2010,07,29,12,30,14.40
2010,07,29,12,31,14.40
2010,07,29,12,32,14.40
2010,07,29,12,33,14.40
2010,07,29,12,34,14.50
2010,07,29,12,35,14.50
2010,07,29,12,36,14.60
2010,07,29,12,37,14.60
2010,07,29,12,38,14.70
2010,07,29,12,39,14.70
2010,07,29,12,40,14.80
2010,07,29,12,41,14.80
2010,07,29,12,42,14.90
2010,07,29,12,43,14.90
2010,07,29,12,44,14.90
2010,07,29,12,45,14.90
2010,07,29,12,46,15.00
2010,07,29,12,47,15.00
2010,07,29,12,48,15.00
2010,07,29,12,49,15.00
2010,07,29,12,50,15.00
2010,07,29,12,51,15.00
2010,07,29,12,52,15.00
2010,07,29,12,53,15.00
2010,07,29,12,54,15.10
2010,07,29,12,55,15.10
2010,07,29,12,56,15.10
2010,07,29,12,57,15.10
2010,07,29,12,58,15.10
2010,07,29,12,59,15.10
2010,07,29,13,00,15.10
2010,07,29,13,01,15.10
2010,07,29,13,02,15.10
2010,07,29,13,03,15.10
2010,07,29,13,04,15.00
2010,07,29,13,05,14.90
2010,07,29,13,06,14.80
2010,07,29,13,07,14.80
2010,07,29,13,08,14.80
2010,07,29,13,09,14.80
2010,07,29,13,10,14.80
2010,07,29,13,11,14.90
2010,07,29,13,12,14.80
2010,07,29,13,13,14.80
2010,07,29,13,14,14.70
2010,07,29,13,15,14.70
2010,07,29,13,16,14.70
2010,07,29,13,17,14.70
2010,07,29,13,18,14.70
2010,07,29,13,19,14.80
2010,07,29,13,20,14.80
2010,07,29,13,21,14.90
2010,07,29,13,22,14.90
2010,07,29,13,23,14.90
2010,07,29,13,24,14.80
2010,07,29,13,25,14.80
2010,07,29,13,26,14.80
2010,07,29,13,27,14.90
2010,07,29,13,28,14.80
2010,07,29,13,29,14.80
2010,07,29,13,30,14.80
2010,07,29,13,31,14.80
2010,07,29,13,32,14.80
2010,07,29,13,33,14.70
2010,07,29,13,34,14.70
2010,07,29,13,35,14.80
2010,07,29,13,36,14.80
2010,07,29,13,37,14.70
2010,07,29,13,38,14.70
2010,07,29,13,39,14.70
2010,07,29,13,40,14.70
2010,07,29,13,41,14.70
2010,07,29,13,42,14.80
2010,07,29,13,43,14.80
2010,07,29,13,44,14.80
2010,07,29,13,45,14.90
2010,07,29,13,46,15.00
2010,07,29,13,47,15.00
2010,07,29,13,48,15.00
2010,07,29,13,49,15.10
2010,07,29,13,50,15.10
2010,07,29,13,51,15.00
2010,07,29,13,52,14.90
2010,07,29,13,53,14.90
2010,07,29,13,54,14.90
2010,07,29,13,55,14.90
2010,07,29,13,56,14.90
2010,07,29,13,57,14.90
2010,07,29,13,58,15.00
2010,07,29,13,59,15.10
2010,07,29,14,00,15.20
2010,07,29,14,01,15.30
2010,07,29,14,02,15.30
2010,07,29,14,03,15.50
2010,07,29,14,04,15.50
2010,07,29,14,05,15.60
2010,07,29,14,06,15.60
2010,07,29,14,07,15.60
2010,07,29,14,08,15.60
2010,07,29,14,09,15.60
2010,07,29,14,10,15.60
2010,07,29,14,11,15.60
2010,07,29,14,12,15.60
2010,07,29,14,13,15.60
2010,07,29,14,14,15.60
2010,07,29,14,15,15.60
2010,07,29,14,16,15.60
2010,07,29,14,17,15.60
2010,07,29,14,18,15.60
2010,07,29,14,19,15.60
2010,07,29,14,20,15.60
2010,07,29,14,21,15.50
2010,07,29,14,22,15.50
2010,07,29,14,23,15.40
2010,07,29,14,24,15.30
2010,07,29,14,25,15.30
2010,07,29,14,26,15.30
2010,07,29,14,27,15.30
2010,07,29,14,28,15.30
2010,07,29,14,29,15.30
2010,07,29,14,30,15.30
2010,07,29,14,31,15.30
2010,07,29,14,32,15.40
2010,07,29,14,33,15.50
2010,07,29,14,34,15.50
2010,07,29,14,35,15.60
2010,07,29,14,36,15.60
2010,07,29,14,37,15.70
2010,07,29,14,38,15.70
2010,07,29,14,39,15.70
2010,07,29,14,40,15.70
2010,07,29,14,41,15.60
2010,07,29,14,42,15.60
2010,07,29,14,43,15.60
2010,07,29,14,44,15.70
2010,07,29,14,45,15.80
2010,07,29,14,46,15.70
2010,07,29,14,47,15.70
2010,07,29,14,48,15.70
2010,07,29,14,49,15.80
2010,07,29,14,50,15.80
2010,07,29,14,51,15.90
2010,07,29,14,52,16.00
2010,07,29,14,53,16.10
2010,07,29,14,54,16.20
2010,07,29,14,55,16.40
2010,07,29,14,56,16.50
2010,07,29,14,57,16.60
2010,07,29,14,58,16.70
2010,07,29,14,59,16.70
2010,07,29,15,00,16.70
2010,07,29,15,01,16.70
2010,07,29,15,02,16.70
2010,07,29,15,03,16.70
2010,07,29,15,04,16.60
2010,07,29,15,05,16.60
2010,07,29,15,06,16.50
2010,07,29,15,07,16.40
2010,07,29,15,08,16.40
2010,07,29,15,09,16.40
2010,07,29,15,10,16.40
2010,07,29,15,11,16.50
2010,07,29,15,12,16.60
2010,07,29,15,13,16.70
2010,07,29,15,14,16.60
2010,07,29,15,15,16.60
2010,07,29,15,16,16.60
2010,07,29,15,17,16.60
2010,07,29,15,18,16.60
2010,07,29,15,19,16.70
2010,07,29,15,20,16.70
2010,07,29,15,21,16.80
2010,07,29,15,22,16.80
2010,07,29,15,23,16.90
2010,07,29,15,24,16.90
2010,07,29,15,25,16.90
2010,07,29,15,26,16.80
2010,07,29,15,27,16.70
2010,07,29,15,28,16.50
2010,07,29,15,29,16.40
2010,07,29,15,30,16.40
2010,07,29,15,31,16.50
2010,07,29,15,32,16.60
2010,07,29,15,33,16.60
2010,07,29,15,34,16.60
2010,07,29,15,35,16.60
2010,07,29,15,36,16.60
2010,07,29,15,37,16.70
2010,07,29,15,38,16.80
2010,07,29,15,39,16.80
2010,07,29,15,40,16.80
2010,07,29,15,41,16.80
2010,07,29,15,42,16.80
2010,07,29,15,43,16.70
2010,07,29,15,44,16.70
2010,07,29,15,45,16.70
2010,07,29,15,46,16.70
2010,07,29,15,47,16.60
2010,07,29,15,48,16.60
2010,07,29,15,49,16.60
2010,07,29,15,50,16.60
2010,07,29,15,51,16.60
2010,07,29,15,52,16.70
2010,07,29,15,53,16.70
2010,07,29,15,54,16.70
2010,07,29,15,55,16.70
2010,07,29,15,56,16.70
2010,07,29,15,57,16.80
2010,07,29,15,58,16.80
2010,07,29,15,59,16.70
2010,07,29,16,00,16.70
2010,07,29,16,01,16.70
2010,07,29,16,02,16.70
2010,07,29,16,03,16.70
2010,07,29,16,04,16.70
2010,07,29,16,05,16.70
2010,07,29,16,06,16.70
2010,07,29,16,07,16.70
2010,07,29,16,08,16.70
2010,07,29,16,09,16.70
2010,07,29,16,10,16.70
2010,07,29,16,11,16.60
2010,07,29,16,12,16.60
2010,07,29,16,13,16.50
2010,07,29,16,14,16.50
2010,07,29,16,15,16.50
2010,07,29,16,16,16.50
2010,07,29,16,17,16.40
2010,07,29,16,18,16.50
2010,07,29,16,19,16.50
2010,07,29,16,20,16.60
2010,07,29,16,21,16.70
2010,07,29,16,22,16.70
2010,07,29,16,23,16.70
2010,07,29,16,24,16.70
2010,07,29,16,25,16.60
2010,07,29,16,26,16.60
2010,07,29,16,27,16.60
2010,07,29,16,28,16.60
2010,07,29,16,29,16.60
2010,07,29,16,30,16.60
2010,07,29,16,31,16.60
2010,07,29,16,32,16.70
2010,07,29,16,33,16.60
2010,07,29,16,34,16.60
2010,07,29,16,35,16.60
2010,07,29,16,36,16.70
2010,07,29,16,37,16.70
2010,07,29,16,38,16.80
2010,07,29,16,39,16.80
2010,07,29,16,40,16.80
2010,07,29,16,41,16.80
2010,07,29,16,42,16.70
2010,07,29,16,43,16.80
2010,07,29,16,44,16.80
2010,07,29,16,45,16.80
2010,07,29,16,46,16.80
2010,07,29,16,47,16.80
2010,07,29,16,48,16.80
2010,07,29,16,49,16.90
2010,07,29,16,50,17.00
2010,07,29,16,51,17.00
2010,07,29,16,52,17.10
2010,07,29,16,53,17.10
2010,07,29,16,54,17.20
2010,07,29,16,55,17.20
2010,07,29,16,56,17.20
2010,07,29,16,57,17.20
2010,07,29,16,58,17.20
2010,07,29,16,59,17.20
2010,07,29,17,00,17.20
2010,07,29,17,01,17.30
2010,07,29,17,02,17.40
2010,07,29,17,03,17.50
2010,07,29,17,04,17.40
2010,07,29,17,05,17.40
2010,07,29,17,06,17.40
2010,07,29,17,07,17.40
2010,07,29,17,08,17.30
2010,07,29,17,09,17.30
2010,07,29,17,10,17.20
2010,07,29,17,11,17.20
2010,07,29,17,12,17.20
2010,07,29,17,13,17.20
2010,07,29,17,14,17.20
2010,07,29,17,15,17.30
2010,07,29,17,16,17.30
2010,07,29,17,17,17.30
2010,07,29,17,18,17.30
2010,07,29,17,19,17.40